Regional Weather Roundup
Issued by NWS

Home | Current Version | Previous Version | Graphics & Text | Print | Product List | Glossary On
Versions: 1 2 3 4 5 6 7 8 9 10 11 12 13 14 15 16 17 18 19 20 21 22 23 24 25 26 27 28 29 30 31 32 33 34 35 36 37 38 39 40 41 42 43 44 45 46 47 48 49 50
000
ASUS45 KBOU 181010
RWRCO

WEATHER ROUNDUP FOR COLORADO
NATIONAL WEATHER SERVICE DENVER/BOULDER CO
300 AM MST THU JAN 18 2018

NOTE: "FAIR" INDICATES FEW OR NO CLOUDS BELOW 12000 FEET WITH NO
SIGNIFICANT WEATHER AND/OR OBSTRUCTIONS TO VISIBILITY.

COZ001>005-013-030-031-181100-
...NORTHWEST COLORADO...

CITY           SKY/WX    TMP DP  RH WIND       PRES   REMARKS
CRAIG          FAIR       9   3  77 SW5       30.33F WCI   1
HAYDEN         FAIR     N/A N/A N/A E13       30.35F
MEEKER         FAIR      20  16  84 CALM      30.33F
RABBIT EARS PA FAIR      19  18  93 W6        30.33S WCI  11
STEAMBOAT SPGS FAIR      10   8  92 CALM      30.35F
WALDEN         FAIR      10   5  79 SE7       30.33F WCI   0
$$

COZ006>008-011-181100-
...WEST CENTRAL VALLEYS...

CITY           SKY/WX    TMP DP  RH WIND       PRES   REMARKS
GRAND JUNCTION FAIR      23  15  71 E6        30.35F WCI  16
MONTROSE       FAIR      20  12  71 S7        30.39F WCI  11
EAGLE          FAIR       9   4  80 E8        30.44S WCI  -3
RIFLE          FAIR      22  14  71 CALM      30.38F
DELTA          FAIR      21  13  71 CALM      30.38F
NUCLA          FAIR      23  14  68 E7        30.37F WCI  15
$$

COZ017>023-064>068-181100-
...SOUTHWEST COLORADO...

CITY           SKY/WX    TMP DP  RH WIND       PRES   REMARKS
DURANGO        FAIR      16  13  88 NE3       30.32F
CORTEZ         FAIR      15  12  88 E5        30.33F WCI   8
PAGOSA SPRINGS FAIR      18  14  87 CALM      30.33F
TELLURIDE      FAIR      23   6  46 SE6       30.36F WCI  16
WOLF CREEK PAS FAIR      25  -6  26 NW3       30.42S
$$

COZ009-010-012-014-032>034-037-058>063-181100-
...CENTRAL COLORADO...

CITY           SKY/WX    TMP DP  RH WIND       PRES   REMARKS
ASPEN          FAIR      17   8  67 S7        30.35F WCI   8
BUENA VISTA    FAIR      19   5  54 W8        30.28F WCI   9
COPPER MTN     NOT AVBL
BERTHOUD PASS  FAIR      12   1  62 N28G33    30.32S WCI  -9
COTTONWOOD PAS   N/A     34   3  27 NW6       30.29S WCI  29
GUNNISON       FAIR       1  -2  87 CALM      30.42F
KREMMLING      FAIR       5   0  78 CALM      30.43F
LEADVILLE      FAIR      12   8  84 NE10      30.33F WCI  -1
MONARCH PASS   FAIR      19   5  53 W21G30    30.43F WCI   3
SALIDA         FAIR      28   9  44 NW9       30.36F WCI  20
SUNLIGHT       FAIR      23  14  68 CALM      30.40F
WILKERSON PASS FAIR      27  -6  24 NW8G17    30.32S WCI  18
$$

COZ069>075-181100-
...SAN LUIS VALLEY/SANGRE DE CRISTO MOUNTAINS...

CITY           SKY/WX    TMP DP  RH WIND       PRES   REMARKS
ALAMOSA        FAIR       2  -8  63 SW5       30.32F WCI  -8
DEL NORTE      FAIR      20  -2  38 W10       30.32S WCI   9
LA VETA PASS   FAIR      23   1  39 SW26G32     N/A  WCI   6
SAGUACHE       FAIR      23   9  54 NW15      30.31F WCI  10
$$

COZ035-036-038>040-181100-
...NORTHERN COLORADO FRONT RANGE...

CITY           SKY/WX    TMP DP  RH WIND       PRES   REMARKS
DENVER INTL AP FAIR      33   9  36 SW12      30.14F WCI  24
DMNS CITY PARK NOT AVBL
AURORA         PTCLDY    30   9  40 S10       30.15F WCI  21
FRONT RANGE AP FAIR      37  12  36 SW12      30.14F
ERIE MUNI ARPT FAIR      20  13  73 SW5       30.20F WCI  13
BOULDER MUN AP FAIR      30  18  59 SW5       30.14F WCI  25
CENTENNIAL     FAIR      30   9  41 SE6       30.15F WCI  24
BROOMFIELD     FAIR      34   9  35 CALM      30.15S
FORT COLLINS   FAIR      26  15  63 CALM      30.14F
LONGMONT       FAIR      19  13  74 CALM      30.17F
$$

COZ041-046-047-076>085-087-088-181100-
...PIKES PEAK/PALMER DIVIDE AND SOUTHERN FOOTHILLS...

CITY           SKY/WX    TMP DP  RH WIND       PRES   REMARKS
COLO. SPRINGS  FAIR      21   3  45 N10       30.19F WCI  10
A. F. ACADEMY  FAIR      17   4  56 N10       30.18F WCI   5
SCHRIEVER AFB  FAIR      24   2  38 CALM      30.19F
CHEYENNE MTN   FAIR      36   2  24 CALM      30.13F
ELLICOTT         N/A    N/A N/A N/A CALM      30.17F
FALCON         FAIR      21   3  46 W6        30.19F WCI  13
FORT CARSON    FAIR      24   5  45 N13       30.17F WCI  12
LIMON          FAIR      13   8  81 N5        30.16F WCI   5
MONUMENT HILL  FAIR      23   9  54 SW9       30.19F WCI  13
CANON CITY     FAIR      36   1  23 W18       30.18F
WALSENBURG     FAIR      32   7  34 W13       30.20F WCI  22
TRINIDAD       FAIR      28   3  34 W15       30.20F WCI  16
$$

COZ042>045-048>051-090-091-181100-
...NORTHEAST COLORADO...

CITY           SKY/WX    TMP DP  RH WIND       PRES   REMARKS
GREELEY ARPT   FAIR      16  10  77 CALM      30.16F
AKRON          FAIR      22  14  71 W10       30.13F WCI  11
BURLINGTON     FAIR      21  10  62 W13       30.15F WCI   9
WRAY           FAIR      19  14  79 W6        30.14F WCI  11
YUMA           FAIR      25  14  63 W10       30.12F WCI  15
STERLING       FAIR      16  12  86 S7        30.13F WCI   6
HOLYOKE        FAIR      21  18  86 W8        30.12F WCI  12
FORT MORGAN    FAIR      16  12  83 W8        30.15S WCI   6
$$

COZ086-089-092>099-181100-
...SOUTHEAST COLORADO...

CITY           SKY/WX    TMP DP  RH WIND       PRES   REMARKS
PUEBLO         FAIR      19   8  62 SW5       30.19F WCI  12
LA JUNTA       FAIR      25  11  55 SW7       30.20F WCI  17
LAMAR          FAIR      20  11  68 SW10      30.19F WCI   9
SPRINGFIELD      N/A     20   9  62 W6        30.18F WCI  12
$$



USA.gov is the U.S. government's official web portal to all federal, state and local government web resources and services.